EW5526 Weather Reports


time (UTC)temp
C
wind
direction
speed
KPH
gust
KPH
rain 1hr
cm
rain 24hr
cm
rain mn
cm
humidity
%
barometer
mb
20260906113026 33 273 3.2 22.5 0.00 0.00 0.00 43 1021.9
20260906110026 34 223 3.2 6.4 0.00 0.00 0.00 35 1022.1
20260906103026 33 237 6.4 6.4 0.00 0.00 0.00 34 1022.2
20260906100026 32 214 0.0 6.4 0.00 0.00 0.00 34 1022.3
20260906090024 31 336 4.8 8.0 0.00 0.00 0.00 37 1022.4
20260906083025 31 5 3.2 11.3 0.00 0.00 0.00 35 1022.3
20260906080024 30 63 0.0 4.8 0.00 0.00 0.00 44 1022.1
20260906073024 29 5 3.2 3.2 0.00 0.00 0.00 42 1021.8
20260906070025 28 335 4.8 4.8 0.00 0.00 0.00 41 1021.6
20260906060022 26 348 3.2 4.8 0.00 0.00 0.00 39 1021.1
20260906053024 25 347 3.2 4.8 0.00 0.00 0.00 41 1021.0
20260906050022 24 355 3.2 4.8 0.00 0.00 0.00 48 1020.8
20260906043021 24 347 3.2 4.8 0.00 0.00 0.00 53 1020.8
20260906033021 25 355 3.2 4.8 0.00 0.00 0.00 55 1020.7
20260906023020 25 355 3.2 3.2 0.00 0.00 0.00 64 1021.0
20260906013019 25 348 3.2 4.8 0.00 0.00 0.00 66 1021.1
20260906003019 25 13 3.2 6.4 0.00 0.00 0.00 68 1021.5
20260906000049 25 12 3.2 8.0 0.00 0.00 0.00 67 1021.5
20260905233018 25 355 3.2 6.4 0.00 0.00 0.00 64 1021.8
20260905230048 25 346 3.2 6.4 0.00 0.00 0.00 64 1021.8
20260905223018 25 5 6.4 11.3 0.00 0.00 0.00 65 1021.8
20260905220047 25 355 3.2 8.0 0.00 0.00 0.00 66 1021.7
20260905210047 25 16 8.0 12.9 0.00 0.00 0.00 70 1021.8
20260905203048 26 310 3.2 12.9 0.00 0.00 0.00 67 1021.8
20260905200046 26 348 4.8 6.4 0.00 0.00 0.00 63 1021.8
20260905190046 26 346 4.8 8.0 0.00 0.00 0.00 62 1021.4
20260905183045 27 151 1.6 4.8 0.00 0.00 0.00 59 1021.0
20260905180044 27 305 8.0 11.3 0.00 0.00 0.00 59 1020.8
20260905170044 28 344 9.7 17.7 0.00 0.00 0.00 56 1020.8
20260905163044 29 265 11.3 14.5 0.00 0.00 0.00 48 1020.8
20260905160043 30 5 4.8 8.0 0.00 0.00 0.00 48 1020.6
20260905153043 30 274 12.9 19.3 0.00 0.00 0.00 53 1020.6
20260905143043 30 9 12.9 17.7 0.00 0.00 0.00 58 1020.9
20260905140042 31 298 11.3 16.1 0.00 0.00 0.00 56 1020.9
20260905133042 33 257 11.3 11.3 0.00 0.00 0.00 50 1021.5
20260905123041 33 163 6.4 11.3 0.00 0.00 0.00 38 1021.6
20260905120041 33 198 3.2 8.0 0.00 0.00 0.00 35 1021.6